Weather History for CWLY - September, 2013

Change the Weather History Date:

Friday, September 13, 2013

  Actual Average Record
Temperature  
Mean Temperature 75 °F -  
Max Temperature 93 °F 71 °F 93 °F (2013)
Min Temperature 57 °F 50 °F 43 °F (2012)
Cooling Degree Days 10    
Growing Degree Days 25 (Base 50)    
Moisture  
Dew Point 55 °F    
Average Humidity 59    
Maximum Humidity 94    
Minimum Humidity 23    
Precipitation  
Precipitation 0.00 in - - ()
Sea Level Pressure  
Sea Level Pressure 29.87 in    
Wind  
Wind Speed 2 mph ()    
Max Wind Speed 8 mph    
Max Gust Speed -    
Visibility 9.0 miles    
Events      
Averages and records for this station are not official NWS values.
T = Trace of Precipitation, MM = Missing Value Source: Averaged Metar Reports

Daily Weather History Graph

Daily Weather History Graph

Search for Another Location

Airport or City:

Trip Planner

Search our weather history database for the weather conditions in past years. The results will help you decide how hot, cold, wet, or windy it might be!

Date:

Astronomy

Sep. 13, 2013 Rise Set
Actual Time 6:39 AM PDT 7:23 PM PDT
Civil Twilight 6:06 AM PDT 7:56 PM PDT
Nautical Twilight 5:27 AM PDT 8:35 PM PDT
Astronomical Twilight 4:45 AM PDT 9:16 PM PDT
Moon 3:43 PM PDT (9/13) No Moon Set
Length of Visible Light 13h 49m
Length of Day
12h 43m
Waxing Gibbous, 62% of the Moon is Illuminated
Sep 13
Waxing Gibbous
Sep 19
Full
Sep 26
Last Quarter
Oct 4
New
Oct 11
First Quarter

Hourly Weather History & Observations

Time (PDT) Temp. Heat Index Dew Point Humidity Pressure Visibility Wind Dir Wind Speed Gust Speed Precip Events Conditions
12:00 AM 68.0 °F - 57.2 °F 68% 29.89 in 9.0 mi Calm Calm - N/A   Clear
1:00 AM 66.2 °F - 57.2 °F 73% 29.90 in 9.0 mi Calm Calm - N/A   Clear
2:00 AM 62.6 °F - 57.2 °F 82% 29.91 in 9.0 mi Variable 2.3 mph - N/A   Clear
3:00 AM 64.4 °F - 57.2 °F 77% 29.92 in 9.0 mi Variable 2.3 mph - N/A   Clear
4:00 AM 64.4 °F - 57.2 °F 77% 29.93 in 9.0 mi Variable 2.3 mph - N/A   Clear
5:00 AM 60.8 °F - 55.4 °F 82% 29.94 in 9.0 mi Calm Calm - N/A   Clear
6:00 AM 59.0 °F - 57.2 °F 94% 29.95 in 9.0 mi Variable 2.3 mph - N/A   Clear
7:00 AM 59.0 °F - 55.4 °F 88% 29.97 in 9.0 mi Calm Calm - N/A   Clear
8:00 AM 57.2 °F - 55.4 °F 94% 29.98 in 9.0 mi Calm Calm - N/A   Clear
9:00 AM 60.8 °F - 57.2 °F 88% 29.97 in 9.0 mi South 3.5 mph - N/A   Clear
10:00 AM 68.0 °F - 57.2 °F 68% 29.96 in 9.0 mi South 5.8 mph - N/A   Clear
11:00 AM 73.4 °F - 53.6 °F 50% 29.93 in 9.0 mi Variable 2.3 mph - N/A   Clear
12:00 PM 77.0 °F - 53.6 °F 44% 29.89 in 9.0 mi Variable 2.3 mph - N/A   Clear
1:00 PM 82.4 °F - 51.8 °F 35% 29.86 in 9.0 mi NNE 3.5 mph - N/A   Clear
2:00 PM 86.0 °F - 50.0 °F 29% 29.83 in 9.0 mi Variable 2.3 mph - N/A   Clear
3:00 PM 91.4 °F - 48.2 °F 23% 29.79 in 9.0 mi North 4.6 mph - N/A   Clear
4:00 PM 93.2 °F - 50.0 °F 23% 29.76 in 9.0 mi North 3.5 mph - N/A   Clear
5:00 PM 91.4 °F - 50.0 °F 24% 29.74 in 9.0 mi North 3.5 mph - N/A   Clear
6:00 PM 86.0 °F 84.2 °F 53.6 °F 33% 29.73 in 9.0 mi Variable 2.3 mph - N/A   Clear
7:00 PM 78.8 °F - 53.6 °F 42% 29.74 in 9.0 mi South 8.1 mph - N/A   Clear
8:00 PM 75.2 °F - 55.4 °F 50% 29.77 in 9.0 mi South 4.6 mph - N/A   Clear
9:00 PM 75.2 °F - 57.2 °F 53% 29.80 in 9.0 mi SSW 5.8 mph - N/A   Clear
10:00 PM 73.4 °F - 59.0 °F 61% 29.82 in 9.0 mi SSW 3.5 mph - N/A   Clear
11:00 PM 71.6 °F - 59.0 °F 64% 29.85 in 9.0 mi South 5.8 mph - N/A   Clear